User: anonymous   Login
Location: Unspecified
(0.0000°N, 0.0000°E)
Time: 17:17:59
(UTC+01:00)
Language:

Meteor 1-31 Rocket - Orbit

View from above orbital plane
View from above orbital plane
View from above satellite
View from above satellite

Ground track
Ground track

The orbit data is extracted from the following two-line orbital elements,

1 12586U 81065B   16338.15828871  .00000618  00000-0  42023-4 0  9993
2 12586  97.4757 318.2916 0019937 149.8369 210.4012 15.09742363926920
Epoch (UTC): 03 December 2016 03:47:56
Eccentricity: 0.0019937
inclination: 97.4757°
perigee height: 523 km
apogee height: 551 km
right ascension of ascending node: 318.2916°
argument of perigee: 149.8369°
revolutions per day: 15.09742363
mean anomaly at epoch: 210.4012°
orbit number at epoch: 92692

The dashed part of the orbit path shows where the satellite is in the earth's shadow,  

DLR